When you browse on this site, cookies collect data to enhance your experience and personalize the content and advertising you see.
Visit our Privacy Policy to learn more. By continuing to use the site, you agree to this use of cookies and data.

Météo par heure à Zibarovka

Ce jour, 11 Juillet, Samedi

Heure Température Précipitation Vent Pression Humidité
00:00 +15°C° 0 mm 1 m/s 748 mmHg 77%
01:00 +15°C° 0 mm 1 m/s 748 mmHg 79%
02:00 +14°C° 0 mm 1 m/s 749 mmHg 80%
03:00 +14°C° 0 mm 1 m/s 749 mmHg 80%
04:00 +15°C° 0 mm 1 m/s 749 mmHg 81%
05:00 +15°C° 0 mm 1 m/s 749 mmHg 82%
06:00 +16°C° 0 mm 1 m/s 749 mmHg 83%
07:00 +17°C° 0 mm 2 m/s 749 mmHg 79%
08:00 +19°C° 0 mm 2 m/s 749 mmHg 75%
09:00 +20°C° 0 mm 3 m/s 749 mmHg 71%
10:00 +21°C° 0 mm 3 m/s 749 mmHg 68%
11:00 +22°C° 0 mm 3 m/s 749 mmHg 65%
12:00 +24°C° 0 mm 3 m/s 749 mmHg 62%
13:00 +25°C° 0 mm 3 m/s 749 mmHg 62%
14:00 +25°C° 0 mm 3 m/s 749 mmHg 61%
15:00 +25°C° 0 mm 3 m/s 749 mmHg 60%
16:00 +25°C° 0 mm 3 m/s 748 mmHg 63%
17:00 +25°C° 0 mm 2 m/s 748 mmHg 66%
18:00 +25°C° 0 mm 2 m/s 748 mmHg 69%
19:00 +23°C° 0 mm 2 m/s 748 mmHg 72%
20:00 +21°C° 0 mm 2 m/s 748 mmHg 75%
21:00 +20°C° 0 mm 1 m/s 748 mmHg 78%
22:00 +19°C° 0 mm 2 m/s 748 mmHg 79%
23:00 +18°C° 0 mm 2 m/s 748 mmHg 79%

Demain, 12 Juillet, Dimanche

Heure Température Précipitation Vent Pression Humidité
00:00 +17°C° 0 mm 2 m/s 747 mmHg 80%
01:00 +17°C° 0 mm 2 m/s 747 mmHg 80%
02:00 +17°C° 0 mm 2 m/s 747 mmHg 81%
03:00 +16°C° 0 mm 2 m/s 747 mmHg 81%
04:00 +17°C° 0 mm 2 m/s 747 mmHg 82%
05:00 +18°C° 0 mm 1 m/s 746 mmHg 82%
06:00 +18°C° 0 mm 1 m/s 746 mmHg 83%
07:00 +20°C° 0 mm 1 m/s 746 mmHg 78%
08:00 +20°C° 0 mm 2 m/s 746 mmHg 73%
09:00 +23°C° 0 mm 2 m/s 747 mmHg 69%
10:00 +24°C° 0 mm 2 m/s 746 mmHg 66%
11:00 +25°C° 0 mm 2 m/s 746 mmHg 62%
12:00 +26°C° 0 mm 2 m/s 746 mmHg 59%
13:00 +26°C° 0 mm 2 m/s 745 mmHg 59%
14:00 +26°C° 0 mm 2 m/s 745 mmHg 59%
15:00 +27°C° 0 mm 3 m/s 745 mmHg 59%
16:00 +27°C° 0 mm 2 m/s 745 mmHg 61%
17:00 +26°C° 0 mm 2 m/s 744 mmHg 63%
18:00 +26°C° 0 mm 1 m/s 744 mmHg 65%
19:00 +25°C° 0 mm 1 m/s 744 mmHg 68%
20:00 +23°C° 0 mm 1 m/s 743 mmHg 71%
21:00 +21°C° 0 mm 1 m/s 743 mmHg 74%
22:00 +20°C° 0 mm 1 m/s 743 mmHg 76%
23:00 +20°C° 0 mm 1 m/s 743 mmHg 78%

Après-demain, 13 Juillet, Lundi

Heure Température Précipitation Vent Pression Humidité
00:00 +19°C° 0 mm 1 m/s 743 mmHg 80%
01:00 +19°C° 0 mm 1 m/s 742 mmHg 82%
02:00 +18°C° 0 mm 2 m/s 742 mmHg 84%
03:00 +17°C° 0 mm 2 m/s 741 mmHg 85%
04:00 +18°C° 0 mm 2 m/s 741 mmHg 86%
05:00 +18°C° 0 mm 2 m/s 740 mmHg 86%
06:00 +18°C° 0 mm 2 m/s 740 mmHg 87%
07:00 +20°C° 0 mm 2 m/s 740 mmHg 83%
08:00 +21°C° 0 mm 2 m/s 740 mmHg 79%
09:00 +24°C° 0 mm 2 m/s 740 mmHg 75%
10:00 +25°C° 0 mm 2 m/s 740 mmHg 72%
11:00 +25°C° 0 mm 2 m/s 739 mmHg 69%
12:00 +26°C° 0 mm 2 m/s 739 mmHg 66%
13:00 +26°C° 0.3 mm 2 m/s 739 mmHg 69%
14:00 +26°C° 0.3 mm 2 m/s 738 mmHg 71%
15:00 +26°C° 0.3 mm 2 m/s 738 mmHg 74%
16:00 +25°C° 1.4 mm 2 m/s 738 mmHg 79%
17:00 +24°C° 1.4 mm 3 m/s 737 mmHg 84%
18:00 +22°C° 1.4 mm 3 m/s 737 mmHg 90%
19:00 +21°C° 0.3 mm 2 m/s 737 mmHg 90%
20:00 +21°C° 0.3 mm 1 m/s 737 mmHg 91%
21:00 +21°C° 0.3 mm 1 m/s 737 mmHg 92%
22:00 +21°C° 0.2 mm 1 m/s 737 mmHg 93%
23:00 +20°C° 0.2 mm 1 m/s 737 mmHg 94%

14 Juillet, Mardi

Heure Température Précipitation Vent Pression Humidité
00:00 +20°C° 0.2 mm 1 m/s 736 mmHg 95%
01:00 +20°C° 0.1 mm 1 m/s 736 mmHg 95%
02:00 +20°C° 0.1 mm 1 m/s 736 mmHg 95%
03:00 +19°C° 0.1 mm 1 m/s 736 mmHg 96%
04:00 +20°C° 0.1 mm 1 m/s 736 mmHg 95%
05:00 +20°C° 0.1 mm 1 m/s 736 mmHg 95%
06:00 +20°C° 0.1 mm 1 m/s 736 mmHg 94%
07:00 +21°C° 0 mm 1 m/s 736 mmHg 91%
08:00 +22°C° 0 mm 1 m/s 736 mmHg 88%
09:00 +23°C° 0 mm 1 m/s 736 mmHg 86%
10:00 +23°C° 0.6 mm 2 m/s 737 mmHg 84%
11:00 +24°C° 0.6 mm 2 m/s 737 mmHg 83%
12:00 +24°C° 0.6 mm 3 m/s 737 mmHg 81%
13:00 +23°C° 0.4 mm 4 m/s 737 mmHg 83%
14:00 +22°C° 0.4 mm 5 m/s 736 mmHg 85%
15:00 +22°C° 0.4 mm 6 m/s 736 mmHg 87%
16:00 +21°C° 0 mm 6 m/s 736 mmHg 87%
17:00 +20°C° 0 mm 7 m/s 736 mmHg 88%
18:00 +18°C° 0 mm 7 m/s 736 mmHg 89%
19:00 +18°C° 0 mm 7 m/s 737 mmHg 89%
20:00 +17°C° 0 mm 6 m/s 737 mmHg 88%
21:00 +17°C° 0 mm 6 m/s 737 mmHg 88%
22:00 +16°C° 0.9 mm 6 m/s 737 mmHg 91%
23:00 +16°C° 0.9 mm 6 m/s 737 mmHg 93%

15 Juillet, Mercredi

Heure Température Précipitation Vent Pression Humidité
00:00 +16°C° 0.9 mm 6 m/s 736 mmHg 95%
01:00 +15°C° 1.7 mm 5 m/s 736 mmHg 96%
02:00 +15°C° 1.7 mm 5 m/s 736 mmHg 96%
03:00 +15°C° 1.7 mm 5 m/s 736 mmHg 96%
04:00 +15°C° 1.5 mm 6 m/s 736 mmHg 96%
05:00 +15°C° 1.5 mm 6 m/s 736 mmHg 96%
06:00 +15°C° 1.5 mm 7 m/s 735 mmHg 96%
07:00 +15°C° 3 mm 7 m/s 735 mmHg 96%
08:00 +14°C° 3 mm 7 m/s 735 mmHg 96%
09:00 +14°C° 3 mm 7 m/s 736 mmHg 96%
10:00 +14°C° 2.1 mm 7 m/s 736 mmHg 96%
11:00 +14°C° 2.1 mm 7 m/s 736 mmHg 95%
12:00 +14°C° 2.1 mm 7 m/s 736 mmHg 95%
13:00 +13°C° 0.7 mm 8 m/s 736 mmHg 94%
14:00 +13°C° 0.7 mm 8 m/s 737 mmHg 94%
15:00 +12°C° 0.7 mm 9 m/s 737 mmHg 93%
16:00 +12°C° 0.4 mm 9 m/s 737 mmHg 93%
17:00 +12°C° 0.4 mm 9 m/s 737 mmHg 93%
18:00 +12°C° 0.4 mm 9 m/s 738 mmHg 92%
19:00 +11°C° 0.2 mm 9 m/s 738 mmHg 92%
20:00 +11°C° 0.2 mm 8 m/s 738 mmHg 91%
21:00 +11°C° 0.2 mm 8 m/s 738 mmHg 90%
22:00 +11°C° 0.1 mm 7 m/s 738 mmHg 89%
23:00 +11°C° 0.1 mm 7 m/s 738 mmHg 88%

16 Juillet, Jeudi

Heure Température Précipitation Vent Pression Humidité
00:00 +11°C° 0.1 mm 7 m/s 738 mmHg 88%
01:00 +11°C° 0 mm 7 m/s 738 mmHg 87%
02:00 +11°C° 0 mm 6 m/s 738 mmHg 87%
03:00 +11°C° 0 mm 6 m/s 738 mmHg 86%
04:00 +11°C° 0.1 mm 6 m/s 738 mmHg 87%
05:00 +11°C° 0.1 mm 6 m/s 738 mmHg 88%
06:00 +12°C° 0.1 mm 5 m/s 738 mmHg 89%
07:00 +12°C° 0 mm 5 m/s 738 mmHg 88%
08:00 +13°C° 0 mm 5 m/s 738 mmHg 87%
09:00 +13°C° 0 mm 5 m/s 738 mmHg 86%
10:00 +14°C° 0 mm 5 m/s 738 mmHg 84%
11:00 +15°C° 0 mm 5 m/s 739 mmHg 82%
12:00 +16°C° 0 mm 5 m/s 739 mmHg 80%
13:00 +17°C° 0.1 mm 5 m/s 739 mmHg 77%
14:00 +19°C° 0.1 mm 4 m/s 739 mmHg 75%
15:00 +20°C° 0.1 mm 4 m/s 739 mmHg 72%
16:00 +19°C° 0.1 mm 4 m/s 739 mmHg 76%
17:00 +19°C° 0.1 mm 3 m/s 739 mmHg 80%
18:00 +18°C° 0.1 mm 3 m/s 739 mmHg 84%
19:00 +17°C° 0 mm 2 m/s 739 mmHg 86%
20:00 +16°C° 0 mm 2 m/s 739 mmHg 87%
21:00 +15°C° 0 mm 2 m/s 739 mmHg 89%
22:00 +15°C° 0 mm 2 m/s 739 mmHg 90%
23:00 +15°C° 0 mm 2 m/s 739 mmHg 91%
Voir plus